Find Local Weather

World > North America > United States > Arizona

Overgaard, Arizona Regional Weather

Lat: 34.39N, Lon: 110.55W
Wx Zone: AZZ016
Feedback
Expires:201812092200;;548777
ASUS45 KPSR 092110
RWRAZ 

ARIZONA HOURLY REGIONAL WEATHER ROUNDUP
NATIONAL WEATHER SERVICE PHOENIX AZ
200 PM MST SUN DEC 09 2018

NOTE: FAIR INDICATES FEW OR NO CLOUDS BELOW 12,000 FEET WITH NO
SIGNIFICANT WEATHER AND/OR OBSTRUCTIONS TO VISIBILITY.


AZZ004>008-015-016-018-092200-
NORTH CENTRAL ARIZONA
  
CITY           SKY/WX    TMP DP  RH WIND       PRES   REMARKS
GRAND CANYON   SUNNY     49  18  29 NE9       30.40F                  
WILLIAMS       SUNNY     52  28  40 NW8       30.35F                  
PRESCOTT       SUNNY     54  26  34 N5        30.34F                  
FLAGSTAFF      SUNNY     44  29  55 NE12      30.39F                  
PAYSON         SUNNY     55  28  35 CALM      30.32                   
PAGE           SUNNY     47  33  58 CALM      30.41F                  
$$


SKY/WX - Weather  TMP - Temperature  DP - Dew Point  RH - Relative Humidity
WIND - Wind Direction/Speed PRES - Barometric Pressure